Theta_e
342 337 341 340 334 337 340 339 337 334 329 328 327 328 331 328 327 328 332 336 338 339 339 340 341 342 342 342 341 340 340 339 337 334 333 333 331 330 328 330 336 337 338 338 339 340 340 339 339 339 339 340 339 339 337 336 337 338 337 337 336 335 335 336 337 337 336 337 336 335 334 333 333 332 332 331 329 329 330 330 329 329 330 330 331
343 339 340 340 335 336 341 339 336 334 329 328 327 329 331 328 327 326 328 329 332 334 337 339 339 340 339 338 337 336 334 332 330 330 332 333 333 332 330 332 338 339 338 338 338 339 338 338 338 338 338 338 339 338 337 336 336 336 335 335 335 335 334 334 335 335 335 335 334 334 334 333 332 332 332 332 331 329 329 329 328 329 330 331 331
342 342 341 342 338 338 343 341 337 334 329 328 327 328 331 329 326 326 326 325 326 327 330 333 333 332 330 330 329 328 328 329 332 335 337 337 337 336 333 335 338 338 337 337 337 338 337 337 337 338 338 337 338 337 336 335 334 334 333 332 334 334 333 333 334 334 334 334 334 333 334 333 333 332 331 330 330 329 329 329 328 328 329 330 330
340 342 341 343 340 338 343 342 338 334 329 328 328 329 331 330 328 326 325 324 324 324 325 326 326 325 325 327 327 329 331 335 337 338 338 339 339 338 336 335 336 337 337 337 337 337 337 337 336 335 336 337 337 337 336 334 333 332 330 331 333 333 333 332 331 331 331 332 333 333 333 333 333 333 332 331 330 331 331 331 330 329 329 329 329
339 340 339 341 339 337 342 343 337 334 330 328 328 328 332 332 330 329 327 325 325 324 324 324 324 327 330 332 333 334 336 338 339 339 339 339 339 339 338 336 336 336 337 339 338 337 336 336 336 334 335 336 335 335 335 333 332 330 329 330 332 332 331 330 327 328 330 331 331 332 332 332 333 333 332 331 331 331 330 331 330 330 330 329 328
339 339 340 341 340 337 341 342 338 334 329 329 329 329 332 334 333 332 331 330 327 326 327 328 330 332 333 333 334 334 336 338 339 340 339 339 340 340 339 338 336 336 337 337 337 338 336 335 336 335 335 334 334 334 333 332 332 330 329 330 331 330 330 329 327 327 330 330 331 332 332 333 333 333 332 331 331 331 330 330 330 330 330 329 329
339 340 342 342 341 338 340 340 338 335 329 329 328 330 333 335 335 335 335 334 332 331 330 332 334 334 333 333 332 332 332 335 337 339 339 340 340 340 340 339 338 337 337 336 336 337 337 335 335 337 335 335 335 334 333 332 333 332 332 332 333 332 331 330 328 327 329 330 330 330 332 333 333 333 332 331 330 330 330 330 330 331 329 329 330
339 342 342 341 341 341 340 340 339 334 329 329 329 330 334 336 335 336 337 336 335 334 333 333 334 333 334 334 333 332 331 332 335 337 339 339 339 340 340 340 339 338 338 338 337 336 337 335 333 336 336 336 336 334 333 334 333 333 333 334 335 333 332 332 330 327 328 329 331 331 332 333 333 333 333 332 331 330 331 330 330 330 329 329 329
339 341 342 341 341 341 341 341 338 333 329 329 330 330 333 335 334 335 336 337 338 337 336 335 334 333 333 334 333 333 332 331 333 336 338 339 339 340 340 340 339 339 338 337 337 336 337 336 332 333 336 336 336 335 335 335 334 333 333 334 334 333 334 334 332 328 328 329 331 332 332 332 331 332 333 332 331 331 329 329 329 329 328 329 329
340 342 342 341 342 342 342 342 338 333 329 330 331 330 333 334 333 334 334 335 337 338 337 336 334 333 332 332 332 332 332 333 335 337 339 339 339 340 340 339 338 338 337 336 337 334 335 336 334 333 336 336 336 336 335 334 334 335 335 333 333 334 335 335 334 330 328 328 329 331 331 331 330 330 331 331 330 330 329 329 328 329 329 329 329
341 343 342 342 343 343 343 342 339 332 329 330 331 330 332 334 333 333 334 335 337 338 337 335 333 332 330 330 331 332 334 337 338 339 339 339 339 340 339 338 338 338 336 335 336 334 332 334 334 333 334 334 334 334 334 333 333 335 335 333 332 333 334 334 335 332 328 329 330 331 331 330 330 331 331 331 330 330 330 330 330 329 329 328 328
343 343 343 343 343 343 343 343 340 333 329 331 332 331 331 332 332 334 335 334 336 338 337 335 333 331 331 332 334 336 338 339 338 338 338 338 339 338 338 337 337 337 336 335 334 333 332 332 333 332 332 332 333 332 332 332 331 332 332 331 331 332 333 333 334 333 329 329 330 331 331 331 332 331 331 331 331 330 330 330 330 330 329 328 328
344 344 344 344 343 343 343 342 340 333 330 330 333 332 331 332 333 335 335 334 336 338 338 337 335 335 336 337 337 338 339 337 335 334 334 335 336 336 335 335 335 336 335 335 333 332 332 331 331 332 332 333 333 333 332 331 330 329 329 330 331 333 334 334 334 333 330 329 330 331 331 331 331 331 331 331 331 330 330 330 330 329 329 328 327
344 344 344 343 343 343 342 342 339 334 329 330 333 333 333 333 334 335 335 334 336 338 338 338 338 338 339 339 338 337 335 333 331 330 330 330 331 331 332 333 332 334 334 334 333 332 332 332 331 331 332 333 333 332 331 330 329 328 329 331 333 333 335 335 334 333 330 329 330 331 331 331 331 331 331 331 331 331 330 329 330 329 329 328 327
343 343 343 341 341 341 341 342 340 337 331 329 331 333 334 334 335 336 334 335 337 339 339 339 338 338 337 336 335 333 332 330 330 330 330 329 329 329 329 331 332 333 334 334 333 332 332 330 328 328 329 330 330 329 329 329 329 328 328 331 332 333 335 335 334 332 330 329 330 330 329 329 331 332 331 331 330 330 329 330 329 329 327 327 326
342 341 340 338 339 339 340 340 340 340 334 329 329 332 334 334 336 336 334 336 339 339 338 337 336 336 335 333 332 331 332 332 332 332 331 331 331 329 328 330 332 333 334 334 332 331 329 326 326 326 326 327 327 327 328 328 328 327 327 330 332 333 334 334 333 332 330 329 328 328 327 326 329 331 331 331 330 330 329 329 328 328 327 326 326
339 338 338 337 338 338 339 338 339 340 337 332 330 332 334 335 336 335 335 338 339 338 337 337 335 334 333 332 332 332 333 333 333 332 332 332 332 330 329 328 329 332 333 333 332 329 326 325 327 327 327 326 326 326 326 326 326 326 328 331 332 333 334 333 333 332 330 328 328 327 325 325 328 331 331 330 330 330 329 329 328 327 327 327 327
337 337 337 336 337 337 338 338 338 337 337 335 334 335 335 336 335 334 337 339 337 337 336 335 334 333 332 332 332 333 332 333 333 332 332 333 332 330 329 328 329 331 332 333 332 329 326 326 328 327 327 326 326 326 326 326 326 327 329 331 332 333 333 333 333 332 330 328 328 326 325 326 328 331 331 330 330 329 329 329 328 328 327 326 326
337 338 337 336 336 336 337 337 336 334 334 336 336 336 336 336 334 335 337 338 336 335 334 333 333 332 331 331 332 333 333 333 333 333 333 333 332 331 329 330 331 331 331 333 332 329 326 326 328 327 327 326 325 325 326 326 327 328 330 331 332 332 333 333 333 332 330 329 328 326 326 326 327 330 331 329 329 329 329 329 328 328 327 326 326
337 336 337 337 337 337 337 337 335 333 332 335 337 336 336 335 335 337 337 336 335 333 332 332 332 331 331 331 331 333 333 334 334 334 333 332 332 331 330 331 331 331 332 332 331 329 327 326 327 326 326 326 326 325 326 326 327 328 328 331 332 332 333 333 333 332 331 330 328 326 327 327 327 330 330 329 330 329 329 328 328 328 326 326 326
338 337 339 340 340 339 338 338 337 334 333 336 337 336 335 335 337 337 336 336 334 332 331 331 331 329 329 329 331 333 334 334 334 335 334 333 332 333 332 332 331 331 332 332 331 328 327 326 326 326 327 326 326 326 326 326 327 327 327 330 333 333 333 333 333 332 331 330 328 328 328 326 328 330 330 329 329 327 327 328 328 328 327 327 326
338 338 340 341 340 339 338 337 336 335 336 337 336 335 336 337 338 337 336 335 334 333 330 331 330 329 328 329 331 333 334 334 334 335 335 334 333 333 334 333 332 331 331 332 331 328 327 326 326 326 327 327 327 327 326 326 326 327 326 329 333 333 332 333 333 332 331 330 329 328 327 326 328 331 330 329 329 326 325 327 327 328 328 328 326
337 338 339 339 339 338 335 334 333 335 337 337 334 336 338 338 337 336 335 334 335 334 331 333 331 329 330 331 332 333 333 333 333 334 334 334 333 334 335 335 335 333 332 332 331 330 328 327 327 327 327 327 326 326 325 325 326 326 325 328 333 333 332 333 332 332 331 330 330 329 327 326 328 331 330 329 329 327 326 328 327 327 328 327 326
337 337 338 339 338 336 333 332 333 335 337 336 334 337 340 338 337 336 335 334 335 334 332 334 333 331 331 331 332 332 332 332 333 334 335 334 334 335 335 335 335 334 333 333 332 332 330 328 327 327 327 327 327 325 324 325 326 326 325 327 331 332 332 332 332 332 331 331 330 329 327 325 327 331 330 329 329 327 326 328 327 327 328 327 326
336 337 338 338 337 334 333 334 335 335 335 335 336 337 339 337 336 335 334 334 335 333 332 333 332 331 331 331 331 331 331 331 332 334 335 335 334 335 336 335 334 334 334 333 333 333 331 330 328 327 327 327 326 325 324 326 327 326 326 327 329 331 332 332 332 331 331 331 330 328 327 324 327 330 330 329 329 328 328 328 327 327 327 327 326
336 337 338 338 337 335 333 334 336 336 334 335 337 337 337 336 334 334 334 334 334 333 332 333 332 332 332 331 330 330 331 330 331 332 334 334 334 335 335 334 334 334 334 332 332 332 331 329 327 327 327 326 326 326 325 326 328 327 327 328 328 329 331 332 332 331 331 331 330 328 326 324 325 329 330 330 329 328 328 328 327 326 326 326 326
337 337 338 338 338 337 336 336 336 335 335 335 336 337 336 334 333 333 333 332 333 332 332 332 332 332 332 331 331 330 330 331 331 331 333 333 333 334 334 334 334 334 333 332 331 332 330 328 327 327 327 326 326 326 326 327 328 328 328 328 328 329 329 331 332 332 331 331 330 328 326 323 324 327 329 330 329 328 328 328 327 327 326 326 326
338 337 338 339 339 338 336 336 335 333 333 332 333 334 333 331 332 332 332 331 331 332 332 332 332 332 331 331 331 331 331 331 331 331 333 334 333 334 334 333 333 333 333 331 331 331 330 329 328 328 329 328 326 326 327 328 328 328 328 328 329 328 328 330 332 332 331 330 330 328 325 324 323 326 329 330 329 328 328 328 327 327 326 326 326
338 338 338 337 336 333 331 333 334 333 331 329 330 330 329 329 330 330 330 330 330 331 331 332 332 332 331 331 332 332 331 331 331 332 333 333 334 334 334 333 332 332 332 332 330 331 331 330 330 330 331 330 328 328 329 328 329 328 328 328 328 329 327 329 331 332 332 331 330 328 326 324 324 325 328 329 329 329 328 328 327 327 326 326 326
338 338 337 335 332 330 331 334 334 332 330 328 328 328 328 328 328 328 328 329 330 331 332 332 332 332 332 333 333 333 333 332 332 332 333 333 334 335 334 333 332 331 332 332 331 331 331 331 331 331 330 330 329 329 329 328 328 328 328 328 328 328 327 327 330 331 332 331 329 328 326 324 324 325 326 328 329 329 329 327 327 327 326 326 325
338 337 336 335 334 332 334 336 334 331 329 328 327 328 328 328 328 328 330 330 330 332 332 333 332 332 333 334 334 334 334 333 333 334 333 334 334 334 334 333 332 331 331 331 331 331 331 331 330 330 329 329 330 329 329 327 326 327 328 328 328 327 327 327 329 331 332 331 330 328 326 325 324 324 326 327 327 328 329 328 327 327 326 326 326
336 336 336 337 336 336 337 336 333 332 330 330 330 331 331 332 332 332 331 332 331 332 332 333 333 333 334 335 335 335 334 334 334 335 334 333 334 334 334 333 332 332 331 331 331 331 331 331 330 330 329 328 330 329 328 326 325 326 328 328 328 327 327 327 329 330 331 331 330 328 327 326 324 325 326 327 326 327 329 329 328 327 327 326 326
333 334 336 338 339 339 338 337 336 335 335 335 335 335 337 337 337 336 335 334 333 333 334 335 335 335 335 335 335 335 334 334 334 334 334 333 334 334 334 333 333 332 332 332 331 331 331 331 331 330 329 328 329 330 329 326 324 325 327 327 328 328 327 327 327 329 330 331 330 329 327 326 325 325 326 327 326 326 329 330 329 328 326 325 326
334 335 337 339 340 340 340 340 339 339 338 339 338 338 340 340 339 339 338 337 336 336 337 337 337 336 335 335 335 334 334 334 334 334 334 334 333 333 333 333 332 332 332 332 331 331 331 331 331 330 328 329 329 329 328 326 324 325 326 326 327 327 327 327 326 326 328 330 331 329 328 327 327 326 325 326 326 326 328 330 330 329 328 327 326
336 336 339 339 340 341 341 341 340 341 340 339 339 339 339 339 339 339 338 338 337 338 337 337 337 336 336 335 335 334 334 334 333 334 333 333 333 332 333 332 331 332 332 332 331 331 331 330 330 330 329 329 329 328 328 326 325 325 326 326 326 327 327 326 326 326 326 328 330 330 329 329 327 327 326 326 326 326 327 327 329 330 329 328 327
338 338 339 340 341 341 342 342 341 341 341 341 340 340 338 337 337 337 337 337 337 337 335 335 335 335 335 335 334 334 334 333 333 333 333 332 332 332 332 331 330 331 330 331 331 331 331 330 330 329 329 329 328 328 328 326 325 325 327 327 327 327 327 327 327 326 326 328 329 330 330 330 329 328 328 327 326 326 327 327 327 329 330 329 328
338 338 339 339 340 341 342 342 342 342 342 341 340 338 337 335 335 335 335 336 335 334 334 334 334 334 334 334 333 332 332 332 332 333 332 332 332 332 331 330 330 330 330 331 332 331 331 331 330 330 329 329 328 326 325 324 325 326 327 328 327 327 327 327 327 327 327 328 330 330 330 330 330 330 330 328 328 327 327 327 327 328 329 329 329
335 336 338 339 338 340 342 342 342 342 341 340 338 336 335 334 335 334 333 332 332 332 332 333 333 332 333 332 332 332 332 332 332 332 332 332 332 332 331 330 331 330 331 331 332 332 331 331 330 329 328 327 326 325 323 323 324 327 328 328 328 328 328 327 327 327 328 329 330 330 330 330 330 330 331 330 329 327 327 328 327 327 328 328 329
334 334 336 338 338 339 341 342 342 341 340 338 337 335 334 333 333 332 331 330 330 330 331 331 331 331 331 331 331 331 331 331 331 331 331 331 331 331 331 331 331 331 331 330 331 332 331 330 328 327 327 326 325 325 324 323 324 326 327 328 327 327 328 327 328 328 328 329 329 329 330 330 330 330 331 330 329 328 328 328 327 327 328 327 328
334 333 332 333 337 338 340 341 342 340 338 337 336 334 333 332 331 330 329 329 329 330 330 330 330 330 329 328 328 328 329 329 330 330 330 330 331 330 330 330 330 330 330 330 330 331 331 330 327 326 328 326 326 326 326 326 325 326 326 328 328 327 327 327 327 328 328 328 328 328 329 329 329 329 330 330 329 328 328 328 328 328 328 327 328
331 331 329 331 335 338 339 340 341 339 335 334 334 333 331 331 330 329 328 328 329 329 329 329 329 328 327 326 327 327 328 329 329 329 329 329 330 330 329 330 330 330 330 330 329 330 330 329 328 328 328 327 326 326 327 328 327 327 327 327 326 326 327 327 327 327 328 328 327 327 328 328 328 328 329 329 329 329 328 328 327 327 328 327 327
329 329 328 330 334 336 338 339 340 337 334 334 334 332 329 329 328 328 328 327 327 328 328 328 328 327 325 324 325 326 326 327 328 328 328 328 329 329 329 329 330 330 330 330 330 330 330 329 328 328 329 328 327 327 328 328 328 328 328 327 326 326 326 327 326 326 326 326 327 327 327 327 327 327 328 329 329 329 329 329 328 328 328 327 327
328 329 329 329 332 334 336 338 338 336 334 334 333 330 328 327 327 327 327 327 326 327 326 326 326 325 323 322 323 323 324 325 327 327 327 327 328 328 328 329 329 329 329 329 330 330 330 328 328 329 328 328 327 327 328 329 328 328 327 328 328 327 328 327 327 326 325 325 325 326 326 326 326 326 326 327 327 328 328 329 329 328 328 329 328
328 329 329 329 330 332 334 336 338 335 332 332 331 329 325 325 326 326 327 327 326 327 326 325 324 323 322 321 321 321 321 323 325 325 325 325 326 326 327 328 328 328 327 328 329 329 329 329 329 329 327 328 328 328 328 328 328 328 327 326 325 326 329 327 325 327 326 325 324 325 325 324 324 324 324 325 326 326 327 327 328 327 328 329 329
329 329 329 329 330 331 333 336 337 333 330 331 329 326 324 324 326 327 327 326 325 324 323 323 322 322 321 321 320 319 320 321 322 322 323 323 324 325 326 326 327 328 328 328 329 328 328 328 328 329 328 328 329 328 327 327 328 328 327 327 326 330 332 327 324 327 327 326 325 324 324 323 323 323 323 324 325 325 326 326 326 326 327 327 327
329 329 329 330 331 332 334 335 333 330 329 330 327 324 324 324 325 326 326 324 323 322 321 321 321 321 320 320 320 319 320 320 320 321 322 321 323 324 326 327 327 328 328 327 327 327 327 327 327 328 328 327 328 327 327 326 326 326 326 327 328 329 330 326 326 327 327 326 327 327 326 325 326 325 324 324 324 325 325 326 325 325 325 325 325
329 329 329 329 330 331 333 331 330 329 328 327 325 324 324 323 322 323 323 322 321 321 321 321 321 320 320 319 319 319 320 320 320 321 322 322 323 324 325 326 327 326 326 325 325 326 326 326 326 326 327 326 326 326 326 325 325 325 326 327 326 327 326 326 327 327 328 326 324 323 322 323 325 325 325 325 325 324 323 323 323 324 325 325 325
329 329 328 327 328 328 328 328 327 327 326 325 324 324 323 322 322 322 322 322 321 321 320 320 320 320 320 319 319 319 319 319 319 320 322 323 323 323 324 325 324 324 324 324 324 324 325 326 326 325 326 326 327 327 326 325 324 325 326 326 327 326 325 326 325 325 328 327 322 318 316 317 320 322 324 326 326 325 323 323 323 324 324 325 326
329 329 328 327 325 325 324 325 325 324 324 324 324 323 321 320 322 322 322 321 319 319 319 320 320 320 320 319 319 319 319 319 319 319 322 323 322 322 323 324 323 323 323 322 322 323 324 325 326 326 326 326 327 326 326 324 324 325 325 325 325 323 322 323 323 322 325 327 324 321 316 313 315 318 321 325 326 326 326 326 325 325 325 326 326
329 330 328 327 326 325 324 323 324 323 322 322 323 322 321 320 322 322 322 320 317 316 318 320 320 320 320 319 319 318 318 319 319 320 321 322 321 321 322 323 323 323 322 321 321 321 322 324 324 324 324 324 323 324 323 323 324 325 325 324 323 321 319 319 320 320 319 320 321 319 314 313 313 313 314 317 320 322 323 325 325 324 325 326 325
329 329 329 327 327 326 324 324 324 322 321 321 321 322 321 321 322 322 321 320 316 313 315 319 320 319 319 319 318 317 318 318 318 320 321 319 318 318 319 321 322 322 321 320 319 317 319 322 321 318 318 318 319 320 321 323 324 323 322 320 320 319 318 316 316 316 315 316 320 319 314 313 313 311 310 310 310 313 316 319 322 324 326 326 324
Wind_Speed
22 24 22 21 22 23 21 21 21 20 21 20 20 21 23 24 25 26 26 26 27 28 29 30 29 29 28 26 25 24 23 22 21 21 20 18 18 17 17 18 19 20 19 18 17 16 15 15 14 13 13 13 13 14 14 17 19 18 18 17 17 17 16 17 18 17 16 16 15 16 16 16 16 16 17 16 17 16 16 16 16 17 18 17 16
24 23 22 20 21 22 21 21 22 21 21 21 21 21 23 24 25 25 25 26 26 27 28 28 28 28 27 26 25 24 23 22 21 20 20 18 18 18 18 18 19 19 18 18 17 17 16 15 14 14 14 14 14 14 15 16 16 17 17 17 17 16 15 16 17 16 15 15 15 16 17 16 16 16 16 16 16 15 16 16 16 18 17 16 16
23 20 20 19 18 20 20 20 22 21 21 22 22 21 22 24 25 25 25 25 26 27 28 28 28 27 27 26 25 24 23 22 21 20 19 18 18 17 18 19 19 18 17 17 17 16 15 14 14 14 14 14 14 14 15 15 16 17 17 18 18 16 15 15 15 15 15 16 16 17 17 16 16 16 15 15 16 16 16 15 16 17 16 15 16
24 22 20 19 17 18 18 18 21 21 21 22 22 22 22 23 25 25 25 25 26 27 27 27 27 27 26 26 24 23 22 21 20 19 19 18 17 16 18 18 18 18 17 16 16 16 15 14 14 14 14 14 14 15 15 15 17 17 17 17 17 16 15 15 15 15 15 16 17 18 17 17 16 16 16 15 16 16 16 16 15 15 15 15 16
27 23 23 22 19 20 19 18 20 20 20 21 22 22 23 22 23 24 24 24 24 25 25 25 25 25 24 23 22 22 21 20 20 19 18 18 17 16 16 17 18 17 16 15 15 15 14 13 13 13 14 14 14 15 15 16 17 17 18 17 17 16 15 15 15 16 16 17 18 18 18 16 16 16 16 15 16 15 15 15 15 15 15 15 16
26 24 23 23 22 23 23 21 20 21 20 20 21 22 23 22 22 22 22 22 22 22 22 22 22 22 22 22 21 21 20 19 18 18 18 17 17 16 16 16 17 18 16 15 14 13 13 13 13 13 13 14 14 14 16 17 18 18 18 17 16 16 15 15 15 16 16 17 18 18 17 16 15 14 14 15 14 14 15 15 14 14 14 15 16
25 24 23 22 22 23 25 25 23 22 21 20 20 21 22 21 21 20 19 19 20 20 20 21 21 21 21 21 20 20 19 18 17 17 16 16 16 15 16 16 16 17 16 15 14 13 12 12 12 13 14 14 14 14 17 18 18 17 16 15 14 13 14 13 13 15 15 16 16 17 18 16 14 13 13 13 14 14 14 14 14 14 14 15 15
25 23 22 22 22 23 24 26 25 24 22 21 20 20 21 21 20 19 18 18 18 18 18 20 20 20 20 20 19 18 18 17 16 16 15 16 16 15 15 15 15 15 15 15 14 13 12 12 12 13 14 14 14 15 16 15 15 14 13 12 11 11 12 12 11 12 13 15 15 16 16 15 14 13 13 12 13 14 13 13 14 14 13 15 14
24 23 22 22 22 23 23 24 25 25 24 22 20 20 20 19 19 19 18 17 17 17 17 18 18 19 19 19 18 17 16 15 15 15 15 15 15 15 14 15 14 14 14 14 13 13 12 12 12 13 14 14 14 14 14 13 13 12 11 10 9 8 9 9 9 10 11 13 14 14 14 14 14 13 12 11 12 13 13 13 13 14 13 14 14
24 23 22 22 23 23 23 23 23 24 25 23 21 20 19 18 18 17 16 16 16 16 17 17 17 18 18 18 17 16 15 14 14 14 15 15 15 14 13 13 13 14 13 12 13 13 12 12 12 13 13 13 14 13 13 12 12 11 9 8 7 6 5 5 7 8 9 11 13 13 12 11 11 12 13 12 12 12 13 13 14 14 13 13 13
23 23 22 22 23 23 23 22 21 22 23 23 22 21 19 17 16 16 15 14 15 16 16 17 16 17 17 17 16 15 14 14 14 14 14 14 14 13 12 12 13 13 11 11 12 12 12 13 13 13 11 11 12 13 12 12 11 10 9 8 7 6 5 5 5 7 8 10 11 11 10 9 11 12 12 12 12 12 13 13 13 13 12 12 13
23 23 23 23 22 21 22 22 21 21 21 22 21 21 19 17 15 14 14 13 14 15 16 16 16 16 15 15 15 14 14 14 13 13 13 12 13 13 12 12 12 11 10 11 11 11 12 12 12 12 12 11 11 11 11 10 10 9 9 7 5 5 6 6 5 6 7 8 9 10 9 10 12 11 12 12 12 12 13 13 12 11 11 12 12
23 23 23 22 20 20 20 21 21 21 21 21 20 20 19 17 15 14 13 12 13 15 15 15 15 15 15 14 14 14 13 13 13 12 11 11 11 11 11 10 10 10 9 9 9 9 10 11 11 11 11 11 10 9 9 8 8 7 7 5 3 3 5 6 6 6 7 7 8 9 8 9 10 10 12 12 11 11 12 12 11 11 11 11 11
24 24 23 22 20 19 19 19 20 21 21 20 20 19 18 17 15 13 12 12 13 14 15 15 15 15 15 14 14 13 13 12 12 12 11 10 10 10 10 9 8 8 8 8 7 7 8 9 10 10 10 10 9 8 8 7 6 5 6 5 2 2 5 7 8 7 7 7 7 8 7 8 9 10 12 12 12 11 11 12 12 11 11 11 10
24 24 23 22 21 20 19 19 19 20 20 20 19 18 17 16 14 13 11 12 14 14 15 14 14 14 14 14 13 13 12 12 12 11 10 10 10 10 10 10 9 8 7 7 6 6 6 7 8 9 9 9 9 8 7 6 5 5 6 5 3 3 6 9 9 7 7 6 6 6 6 7 9 9 10 11 12 11 11 12 11 11 10 10 9
24 24 23 23 22 21 20 19 18 18 19 19 19 18 17 15 14 13 12 14 14 14 14 14 14 14 14 14 13 13 12 11 11 10 10 9 9 9 9 10 10 8 7 7 6 6 7 7 8 9 9 9 10 9 7 6 5 5 5 5 3 5 9 10 8 7 6 6 6 6 5 7 8 9 9 10 11 10 11 11 10 10 10 9 9
23 24 23 23 22 22 21 20 19 18 18 19 18 17 16 15 14 13 14 15 15 14 14 14 13 13 14 14 14 13 12 11 10 10 9 9 9 8 8 9 10 9 8 7 7 7 8 8 10 10 10 10 10 10 8 7 6 6 6 6 4 6 10 10 8 7 6 5 5 5 5 7 8 8 8 9 9 10 11 10 10 10 10 10 9
23 23 23 22 21 22 21 20 20 19 18 18 18 18 16 16 15 14 15 15 15 15 14 13 14 14 14 14 13 12 11 10 9 9 9 8 8 7 6 7 9 9 8 7 7 7 8 9 11 10 10 10 11 10 9 8 7 6 6 6 5 7 10 11 8 7 5 5 5 5 5 7 8 7 7 8 9 10 10 9 10 10 10 9 8
23 22 21 22 22 22 22 21 20 20 20 20 20 19 18 17 16 15 15 15 15 14 13 13 14 14 13 13 12 11 10 9 9 8 8 8 8 7 6 7 9 8 8 7 7 7 8 9 10 9 9 10 10 10 9 9 8 7 6 6 5 8 11 12 9 7 6 4 4 5 5 6 6 6 6 7 9 10 9 9 9 9 9 9 8
22 21 21 21 22 23 23 21 21 22 23 22 21 20 19 17 17 16 16 15 14 13 13 13 13 13 12 11 10 10 9 8 8 8 8 7 7 7 6 7 8 8 8 8 7 7 8 9 8 7 7 8 9 8 8 9 8 7 7 7 6 8 12 13 10 8 6 4 3 4 4 5 5 6 6 7 9 9 10 9 8 8 8 8 8
20 20 20 20 20 21 22 21 21 22 23 23 21 20 18 17 17 16 15 14 14 13 13 13 12 12 11 10 9 9 8 8 7 7 7 7 7 7 7 7 7 7 7 7 7 7 7 8 8 6 6 7 8 7 7 7 8 7 7 8 7 7 11 12 11 8 6 4 3 3 3 4 4 5 5 6 7 7 8 9 8 8 8 8 7
19 18 19 19 19 20 21 21 21 21 21 21 21 20 18 17 17 16 15 14 13 12 12 12 11 11 10 9 8 7 7 7 6 6 7 7 7 7 7 7 7 7 7 7 7 7 7 8 7 7 7 7 7 7 6 6 6 7 7 8 8 7 10 11 10 8 6 4 2 2 2 3 4 5 4 5 5 4 7 9 8 8 8 8 6
19 19 19 19 18 20 21 21 21 20 20 20 21 20 18 18 18 17 16 15 13 12 12 11 10 9 8 7 7 6 5 5 5 5 5 6 6 6 6 7 7 6 6 7 6 6 7 7 7 7 7 6 6 6 5 5 5 6 7 8 8 7 8 10 9 8 6 4 2 1 1 2 4 5 5 5 5 4 6 9 8 7 8 7 6
21 21 20 19 20 21 20 20 20 20 20 20 20 20 19 18 18 17 16 16 14 13 12 10 9 7 7 6 6 5 5 5 5 5 5 5 5 5 5 6 7 7 6 6 6 6 5 6 6 6 5 4 4 4 4 5 5 6 6 7 8 7 6 9 10 9 7 5 3 2 2 2 4 5 5 5 6 5 6 9 8 7 7 7 6
21 21 20 21 22 22 21 21 20 20 21 20 21 21 20 19 18 17 16 16 15 13 12 11 9 8 7 7 6 5 5 5 5 5 5 4 5 5 5 6 7 7 7 6 6 6 5 5 5 4 4 3 3 2 4 5 5 5 6 6 7 6 5 7 10 10 8 6 4 3 2 2 3 5 5 5 6 5 7 8 8 7 7 7 6
21 21 20 21 23 22 22 23 20 19 21 20 21 21 20 19 18 17 16 15 14 13 12 10 9 8 8 7 7 6 5 5 4 4 4 4 4 5 6 6 6 7 7 6 6 6 5 4 4 4 4 4 3 2 3 4 4 4 6 6 6 6 5 5 8 9 8 6 4 4 3 3 3 5 6 6 5 5 7 7 7 8 7 7 6
20 20 19 19 19 18 17 18 18 19 20 20 21 19 19 19 18 16 15 15 13 12 11 10 9 9 8 7 7 6 6 5 5 4 4 3 4 6 6 5 5 6 6 5 5 5 5 4 3 3 4 4 4 2 3 4 3 3 4 5 6 5 4 4 6 7 7 7 5 5 4 4 3 4 5 6 6 5 7 7 6 7 7 7 6
18 17 17 16 13 11 11 13 15 19 20 19 19 18 17 18 16 15 14 14 12 11 10 10 9 9 8 7 7 6 6 6 5 5 4 4 3 5 6 6 6 6 6 6 5 5 5 4 3 3 3 3 3 3 3 3 2 2 3 4 5 5 4 3 5 6 7 7 6 6 5 4 4 4 5 5 5 5 6 6 6 6 6 7 7
17 16 17 16 16 15 15 15 16 19 19 18 18 16 16 16 16 15 14 13 12 11 10 10 9 8 8 8 7 7 6 6 6 5 5 4 5 5 6 6 6 6 6 6 5 5 4 4 3 2 2 1 1 2 3 2 2 3 3 3 4 4 4 2 4 5 6 7 6 6 5 5 4 4 4 4 5 5 6 6 6 6 6 7 7
16 14 16 17 19 20 18 18 18 18 17 16 16 15 14 14 14 14 13 12 11 11 10 9 9 8 8 7 7 6 6 5 6 6 5 5 6 5 5 5 5 6 5 5 4 4 4 3 3 3 2 1 1 1 1 2 2 3 4 3 3 3 3 2 3 4 6 7 7 7 6 5 5 4 4 4 4 5 5 6 6 6 6 6 6
10 9 13 16 17 18 18 18 19 18 16 15 15 14 13 13 13 13 13 12 10 10 10 9 9 9 8 7 6 6 6 5 5 5 5 5 5 5 4 4 4 4 3 3 4 4 4 4 3 3 2 1 1 1 1 1 2 2 3 3 2 2 2 2 4 4 5 7 8 9 8 6 5 5 5 4 3 4 5 6 6 6 6 6 6
11 11 13 14 16 17 17 18 19 18 17 15 14 13 12 12 13 13 12 12 10 9 10 9 9 9 9 9 8 8 7 6 6 6 5 5 5 5 4 4 3 3 3 3 4 5 5 5 4 4 3 2 1 1 1 2 4 3 1 2 2 2 1 0 3 4 5 7 9 9 8 6 6 6 6 5 4 4 5 5 5 6 7 7 6
21 20 16 15 16 16 17 18 18 18 16 13 12 12 11 11 12 12 11 11 10 9 9 9 10 10 10 10 9 9 8 6 7 6 5 4 4 5 5 5 5 4 4 4 6 6 6 6 6 5 4 3 2 2 0 3 4 4 2 1 2 2 2 2 2 4 5 7 8 8 8 7 6 6 7 6 5 5 6 6 5 5 5 5 6
22 19 17 16 16 16 16 17 17 16 14 12 12 11 10 10 10 10 10 10 10 9 8 8 9 9 9 7 7 8 6 6 6 5 5 5 5 6 6 6 5 5 5 6 7 8 7 7 7 6 5 4 3 2 0 2 3 3 1 0 1 2 2 3 4 4 5 6 8 8 8 8 7 6 6 6 6 6 6 8 6 5 4 3 5
17 15 15 15 15 16 16 17 16 15 14 13 13 11 9 9 8 8 8 8 7 8 7 6 6 6 6 6 6 6 5 5 6 6 6 6 6 7 6 5 4 6 7 8 8 8 8 7 7 7 6 5 4 3 1 2 2 1 1 1 2 3 3 4 4 6 7 7 7 9 9 9 8 7 6 6 6 6 6 7 7 7 6 3 3
15 15 14 14 16 17 16 17 16 15 15 14 12 10 9 8 7 7 6 5 5 5 5 5 5 5 6 6 5 5 5 5 4 5 6 6 7 6 6 6 6 7 8 9 9 9 9 8 9 8 7 6 4 3 2 2 2 1 1 2 2 3 3 4 4 6 8 9 9 10 10 9 9 8 8 6 6 6 5 6 7 8 8 6 3
16 17 16 17 19 18 17 17 17 17 15 15 13 11 9 8 7 5 4 3 3 4 4 3 4 4 4 4 4 3 4 4 3 5 5 5 7 6 6 7 7 9 11 9 9 9 8 8 9 9 8 6 5 3 2 2 3 3 3 2 2 3 4 5 5 6 8 10 11 11 11 11 10 10 9 8 8 7 6 6 6 7 8 7 6
19 19 18 20 22 21 19 18 18 17 16 15 13 11 10 8 7 5 3 3 2 2 2 2 2 2 1 2 3 3 4 4 4 4 4 5 6 7 7 8 9 11 11 8 7 8 6 7 9 9 8 6 5 4 3 3 4 4 4 4 4 4 4 5 5 6 8 10 12 12 13 13 12 12 11 11 11 9 8 7 7 7 7 7 7
21 21 21 22 23 22 21 19 19 18 16 14 12 11 10 8 7 6 5 4 3 3 2 1 1 2 2 1 1 1 2 3 3 2 2 3 4 5 6 8 10 11 10 7 6 7 6 7 7 7 8 7 6 5 3 4 5 5 4 4 5 5 5 5 4 4 5 7 9 10 12 13 14 14 13 13 13 12 10 10 8 8 7 7 7
21 21 20 20 22 24 22 20 20 18 16 15 13 12 11 9 8 7 6 6 5 4 3 3 3 4 5 5 4 3 1 0 1 0 1 1 2 3 4 7 9 9 8 7 5 5 5 5 6 7 9 8 7 5 4 4 4 5 4 4 5 5 6 5 5 5 6 5 5 6 7 9 11 13 15 15 15 15 13 12 11 10 9 8 8
19 20 17 16 21 23 22 22 20 18 17 16 15 14 13 10 9 8 7 7 7 5 5 5 5 6 6 6 6 5 5 4 4 3 3 2 3 4 3 5 6 6 5 3 3 2 3 5 8 10 9 8 6 5 5 6 5 4 4 3 4 5 6 6 6 6 6 6 6 5 4 4 4 6 10 11 12 14 15 14 14 13 11 11 11
18 20 18 18 22 23 23 23 21 19 17 17 16 15 12 10 9 9 8 8 7 6 6 5 5 5 6 6 6 6 6 6 6 6 5 5 5 4 3 3 4 4 4 3 3 3 3 6 9 10 8 7 6 7 7 5 5 5 4 3 2 3 4 5 6 7 8 8 8 8 6 4 2 4 5 5 7 10 12 13 14 15 14 13 13
17 19 20 20 22 23 23 23 21 19 18 17 17 14 11 10 8 8 9 8 8 6 5 4 4 4 4 5 5 5 5 5 6 6 6 5 5 4 3 2 3 3 3 3 2 3 3 4 7 8 8 7 6 8 8 6 5 6 4 2 1 1 2 3 4 6 8 9 10 10 8 6 6 6 6 3 3 6 8 10 11 13 14 13 13
16 18 19 21 22 23 24 23 21 20 20 19 18 14 12 11 9 8 9 8 7 6 5 4 4 4 3 3 2 2 3 4 5 6 5 5 4 4 3 2 3 3 3 1 1 2 2 3 4 6 7 7 6 7 8 7 7 7 4 1 1 1 1 2 2 4 7 9 9 9 8 7 6 7 6 5 5 6 6 6 7 11 10 8 10
17 18 19 20 22 24 23 22 22 23 21 21 19 16 14 13 12 11 10 9 8 7 6 6 5 4 4 3 3 2 2 3 4 4 5 4 3 3 1 1 2 3 3 2 2 2 2 4 5 5 5 6 6 5 6 6 7 7 5 3 2 0 1 1 0 1 4 6 6 7 8 7 5 5 7 7 8 6 6 6 7 9 7 5 8
19 19 20 21 22 23 23 23 25 24 23 22 20 17 16 15 14 14 13 11 10 9 7 7 6 5 6 6 6 6 4 4 3 2 3 3 3 4 2 2 3 4 3 3 2 2 3 4 4 4 3 3 3 3 4 5 4 3 4 4 2 2 3 3 1 1 2 2 2 2 3 4 3 4 6 6 6 6 7 9 9 9 7 7 9
20 20 20 22 24 25 25 26 26 25 24 23 21 19 17 15 14 14 14 13 12 10 8 8 7 7 7 8 8 8 6 5 4 3 3 3 3 4 4 3 5 5 5 4 4 3 2 3 4 5 3 2 1 2 3 4 3 2 3 3 3 3 5 4 2 1 2 4 6 7 7 5 0 3 5 6 6 6 6 7 9 9 8 8 9
21 22 24 24 24 25 25 26 25 25 24 23 22 21 18 16 15 14 14 12 11 10 9 8 8 7 7 8 8 8 7 6 4 3 3 4 4 4 4 6 7 7 6 6 6 6 4 3 3 5 4 3 2 2 3 3 3 3 5 4 2 3 5 4 2 2 2 3 5 8 11 13 11 6 2 4 5 5 3 3 4 5 5 6 6
24 23 19 14 12 15 20 23 24 24 23 22 23 21 17 16 15 15 14 12 9 9 9 9 9 8 6 7 7 7 6 6 4 2 3 4 4 4 4 5 6 6 6 6 6 6 6 5 4 5 5 5 4 3 3 3 3 2 5 5 4 6 6 7 6 5 4 4 3 2 6 12 17 18 14 8 3 1 0 1 1 1 3 4 5
20 16 12 9 9 13 18 22 25 23 22 22 23 21 17 15 15 14 13 12 10 10 10 10 9 7 6 6 6 6 6 5 5 4 5 5 4 4 4 4 5 5 5 5 6 6 6 6 7 7 7 7 7 5 4 4 4 4 3 4 7 8 6 7 6 5 7 8 5 2 4 7 11 17 22 21 17 13 9 6 3 3 4 5 5
14 13 14 16 21 24 22 22 24 23 21 21 22 20 16 14 14 13 13 12 10 10 11 11 9 8 7 7 6 6 6 6 6 6 6 6 4 3 3 4 5 5 5 4 4 5 6 7 8 10 11 11 11 10 9 8 8 10 10 9 10 9 8 8 5 5 8 8 5 3 6 7 7 12 20 25 26 23 19 16 12 10 9 9 8
Wind_Direction
162 162 157 156 159 160 158 153 149 144 137 130 128 127 126 127 130 133 134 133 132 133 134 133 131 130 130 130 130 129 128 126 124 123 122 121 119 115 112 110 108 108 109 113 117 116 116 117 116 116 115 113 112 111 111 111 111 113 113 110 107 104 108 108 105 104 100 98 97 95 95 97 97 95 92 91 92 93 93 91 88 84 79 77 74
160 159 155 155 158 159 159 154 150 146 140 133 130 130 128 128 129 131 134 135 134 134 134 134 132 131 131 130 130 128 127 124 122 120 118 115 112 106 105 109 108 107 108 111 115 115 116 117 116 116 116 115 114 113 113 113 115 119 118 113 111 107 108 109 106 106 102 100 98 95 95 98 97 97 95 94 93 91 89 88 89 84 79 75 72
149 148 148 149 154 156 156 153 149 146 142 135 133 134 131 130 130 131 132 133 133 133 133 133 132 131 130 129 128 127 124 121 118 117 116 114 112 104 102 108 112 112 112 112 112 113 115 115 115 116 118 118 116 114 115 116 118 121 120 116 114 110 109 106 104 106 105 104 103 100 98 98 97 97 96 95 93 90 86 84 86 85 82 78 72
149 145 144 145 152 155 154 152 148 146 144 137 135 136 134 132 132 132 133 134 133 133 133 133 132 131 128 127 125 124 121 120 119 119 119 118 116 108 103 106 110 111 111 110 110 111 113 114 116 117 118 118 117 117 117 119 120 119 117 114 110 107 105 103 104 107 107 107 107 103 99 97 97 97 95 94 92 90 89 87 85 83 81 78 72
152 148 148 151 154 155 154 152 149 147 144 138 136 136 136 134 132 133 133 134 135 134 135 133 130 127 125 124 123 123 121 121 123 122 122 121 118 112 106 104 106 109 110 109 108 109 111 114 115 117 119 119 119 120 121 122 120 118 114 110 106 103 102 102 103 105 107 106 106 105 101 99 100 98 97 96 94 92 92 89 85 83 79 76 72
149 148 151 153 154 154 156 155 151 148 146 140 138 137 136 135 133 133 133 134 134 135 134 130 126 126 126 126 125 124 124 123 123 123 122 122 119 115 112 108 106 109 111 110 108 108 109 112 115 116 119 121 121 122 125 123 117 114 114 109 104 101 100 99 100 105 106 106 106 107 105 103 103 100 99 99 97 95 92 91 87 84 79 76 73
148 148 151 153 152 154 158 157 154 151 149 144 139 138 136 135 135 133 133 133 133 134 132 130 129 130 130 129 128 126 125 124 123 121 121 122 121 118 116 111 107 108 110 111 110 108 108 111 116 117 119 122 123 126 128 124 117 114 114 108 101 99 100 97 98 104 104 107 108 108 107 104 103 99 100 101 100 97 95 96 90 84 82 79 75
147 149 151 151 150 154 158 157 156 154 151 146 142 140 136 134 134 134 134 134 133 133 134 134 134 134 133 132 130 128 127 125 123 119 119 120 120 118 115 113 109 109 112 113 111 109 110 112 118 122 123 125 125 128 131 129 124 120 119 114 107 100 99 96 98 104 104 108 110 110 110 107 104 100 99 99 100 100 99 100 92 86 83 81 77
147 149 149 149 149 154 156 157 157 155 152 147 144 142 138 134 133 133 135 137 137 136 137 137 137 138 136 135 133 131 129 127 123 120 121 120 118 117 116 117 116 118 119 116 112 108 109 110 117 127 129 130 131 133 133 132 130 129 126 125 122 105 98 98 100 108 106 107 113 116 115 115 115 108 103 100 102 102 101 102 95 89 85 82 78
146 146 147 149 150 154 155 155 155 155 152 146 144 144 141 137 134 132 134 138 139 140 140 140 140 141 140 138 136 134 131 128 124 123 123 122 121 119 120 122 124 128 125 118 115 110 108 109 115 126 131 131 133 135 136 134 133 137 134 128 126 119 115 111 109 113 109 109 116 120 122 123 118 110 106 104 104 102 96 94 92 92 89 86 81
142 145 147 149 150 153 153 151 152 154 152 146 145 145 145 142 138 135 135 139 140 140 140 142 142 143 142 140 137 134 132 127 125 125 124 125 126 128 128 128 130 131 125 119 119 113 111 113 118 125 128 127 132 137 140 144 144 147 145 136 137 145 152 140 127 122 116 116 117 120 123 115 104 104 106 105 105 104 98 94 96 97 93 88 82
141 145 147 149 150 152 151 149 150 152 152 148 146 146 147 146 143 139 139 141 142 142 141 141 142 141 139 137 135 132 131 126 125 126 126 128 132 136 134 134 137 134 127 124 120 113 112 116 118 122 124 128 139 145 149 154 156 159 150 142 151 158 156 151 144 135 128 124 119 118 117 109 106 109 111 110 107 107 104 101 101 99 94 90 87
141 145 145 147 147 148 148 148 149 152 155 152 148 148 149 150 147 144 143 144 144 145 144 143 141 140 137 136 136 133 132 128 126 126 128 134 139 141 136 136 141 140 135 128 121 111 112 118 119 122 126 133 143 151 156 157 154 155 143 137 159 151 150 156 155 147 137 132 122 118 117 113 115 117 118 115 110 107 107 104 102 99 94 92 90
143 146 145 145 144 146 146 148 151 152 156 157 153 152 152 153 152 150 149 148 149 150 148 147 144 143 140 138 137 134 133 130 127 126 131 137 139 138 135 138 140 142 141 131 121 108 111 120 127 132 134 139 146 153 158 157 147 140 130 130 151 134 146 156 157 150 139 136 127 122 120 114 115 119 122 120 116 112 111 109 103 100 95 94 94
146 146 146 146 145 147 147 149 151 151 156 159 159 156 156 157 158 158 155 152 153 153 149 147 144 142 141 140 138 134 132 129 127 127 130 134 133 134 137 141 142 145 146 136 121 110 114 120 129 135 135 139 144 151 157 155 144 131 118 122 139 135 148 151 150 149 139 138 130 125 121 115 120 122 122 122 120 117 115 113 109 107 100 96 95
147 148 149 149 149 150 150 148 151 154 156 160 164 161 161 162 163 165 159 154 153 151 148 145 144 143 144 142 139 136 133 129 126 127 129 131 130 133 138 143 145 145 144 137 125 118 116 115 121 123 125 133 138 146 152 150 138 123 103 104 130 144 151 148 143 146 139 136 128 125 120 117 127 125 121 123 123 120 117 115 115 112 103 96 93
149 152 154 151 151 151 150 149 150 154 154 159 165 164 164 165 167 169 159 153 152 150 148 148 148 147 147 144 141 138 133 129 127 128 131 134 134 134 136 142 146 145 138 132 130 122 114 116 116 112 114 120 128 136 142 143 134 121 98 98 134 155 157 152 142 144 141 137 125 119 114 113 126 128 127 130 127 122 119 117 114 110 106 100 93
153 157 155 150 149 149 150 150 150 152 155 162 168 167 167 168 171 170 159 155 154 153 153 152 152 150 149 145 142 138 135 133 132 134 135 137 138 140 136 131 137 143 140 134 131 122 117 121 117 108 105 108 116 124 132 135 131 121 98 100 145 166 164 158 150 150 147 141 125 117 113 112 125 132 133 132 127 122 120 120 115 113 113 106 100
157 159 153 150 151 151 152 152 151 153 159 167 169 168 168 169 171 169 164 161 158 157 156 154 153 152 150 146 144 142 140 139 140 141 139 140 141 144 141 130 132 140 143 138 133 125 125 128 124 112 103 102 105 113 121 126 126 118 98 97 137 167 167 162 159 159 156 150 133 122 118 121 130 135 137 133 128 126 124 122 120 118 115 110 105
159 159 153 155 157 155 154 153 154 157 163 169 169 167 168 169 169 169 167 164 162 161 159 156 156 155 154 152 152 149 146 146 146 146 143 145 147 148 144 138 138 142 143 142 137 129 131 135 133 122 109 105 103 105 114 122 122 113 98 89 111 155 164 164 165 165 164 159 141 132 127 129 136 139 143 142 135 134 133 127 124 120 114 112 109
157 158 154 157 159 157 155 154 158 163 167 170 169 166 167 168 169 169 167 165 165 165 163 160 159 160 161 163 163 157 152 151 149 152 152 150 150 150 147 145 146 146 146 147 143 134 133 138 142 134 121 116 112 108 110 118 120 113 102 89 95 136 159 166 169 168 173 171 150 138 136 133 140 145 150 150 150 152 144 132 125 123 118 116 115
156 158 157 158 160 159 157 158 164 169 170 171 169 166 167 170 169 169 167 166 165 167 167 164 166 167 170 169 165 161 156 153 155 160 161 157 155 154 153 153 152 152 152 153 151 145 141 141 143 139 130 125 123 119 115 120 120 114 108 98 96 123 155 169 172 173 179 179 163 153 151 143 144 154 159 159 164 162 141 133 128 128 126 124 121
160 161 160 162 164 164 162 164 168 172 173 172 169 167 170 172 171 169 168 165 166 172 170 168 174 172 169 165 162 163 158 157 154 158 165 162 163 161 161 163 159 158 157 159 161 158 153 151 150 146 139 134 132 128 123 126 125 118 116 110 104 118 155 173 177 180 184 187 188 190 176 157 154 164 170 165 171 166 137 136 137 135 133 132 127
164 164 164 168 170 167 165 167 169 173 175 172 169 169 173 175 172 171 169 167 172 177 173 172 179 175 170 167 169 171 165 164 154 159 169 165 171 172 169 167 164 166 167 171 174 169 167 166 165 162 154 148 145 139 131 132 130 124 123 121 113 111 146 176 184 185 186 194 206 222 223 183 167 174 182 175 175 174 147 144 146 142 138 136 134
166 166 169 173 174 170 168 170 171 175 175 174 174 174 178 178 174 174 173 172 177 180 176 177 181 181 180 178 182 184 181 181 173 178 180 172 180 184 178 171 169 173 177 183 184 183 186 182 179 178 183 189 179 157 143 140 132 125 123 121 117 110 122 165 181 186 189 196 211 232 239 219 184 178 188 186 184 177 157 154 152 148 144 140 138
170 170 173 175 176 174 175 173 172 176 176 178 180 178 180 180 177 178 178 180 184 183 180 182 185 187 185 186 191 195 197 200 202 203 197 192 196 192 188 183 178 179 180 186 191 194 195 188 189 197 214 220 214 196 160 153 140 127 124 119 116 116 119 148 170 179 185 190 205 229 241 239 206 183 189 190 195 186 166 163 158 155 151 145 140
174 177 176 176 177 176 175 174 174 178 179 181 182 180 181 182 181 182 185 188 189 188 187 188 192 192 190 192 198 205 209 212 222 231 229 222 211 197 194 193 188 187 187 189 194 199 198 198 211 224 236 237 233 218 176 167 158 142 131 123 116 112 116 149 169 177 182 186 201 226 240 248 225 193 192 193 199 190 174 174 170 166 160 151 143
178 179 178 172 170 174 180 186 187 182 182 184 184 182 182 184 185 187 193 195 195 197 196 198 201 200 198 197 199 208 216 224 230 239 247 245 228 204 197 196 195 199 201 200 200 202 205 213 232 247 261 257 242 219 190 190 194 182 158 133 124 110 98 142 180 187 190 193 203 225 242 250 238 209 200 199 202 192 183 188 184 178 169 158 151
183 179 177 174 174 185 196 203 200 189 187 187 187 189 186 186 192 198 201 202 202 205 206 209 211 210 208 204 203 207 217 231 240 244 248 248 238 216 200 194 196 203 210 213 214 213 214 221 243 270 292 284 235 215 212 224 264 249 201 153 138 116 83 122 188 200 200 200 207 223 239 248 244 230 219 207 206 200 193 199 195 191 183 169 166
185 175 180 187 186 190 197 204 204 197 194 192 193 194 193 195 202 208 209 209 207 207 212 216 220 223 223 218 212 214 227 239 246 247 245 245 241 227 209 200 199 205 214 224 229 229 229 238 274 295 301 287 204 205 250 266 298 277 233 191 159 133 77 108 183 206 207 205 213 226 236 247 246 243 242 223 211 208 204 207 202 199 198 187 184
165 172 191 196 192 192 197 204 207 206 200 199 201 201 202 205 211 215 212 214 215 213 218 224 229 234 236 234 229 228 233 237 247 251 247 248 248 241 227 209 206 215 226 240 240 237 241 254 278 288 273 240 197 178 336 332 344 312 235 228 205 165 78 115 180 203 212 209 218 229 234 243 244 245 252 246 228 208 207 217 209 202 206 203 198
161 193 207 199 192 193 198 204 208 209 205 205 208 206 208 210 216 219 218 221 223 224 227 232 236 240 243 241 239 236 229 227 236 242 246 247 241 242 243 226 218 234 251 253 245 239 244 252 259 274 261 226 204 187 26 2 3 8 239 234 248 250 329 114 196 212 224 221 222 230 235 241 241 243 251 257 263 223 206 223 221 209 210 210 205
178 193 203 200 195 194 199 205 207 210 209 210 212 211 212 214 219 222 223 226 228 234 238 240 240 239 241 242 241 234 226 226 227 228 235 234 227 232 242 237 228 233 245 239 236 238 242 243 244 256 247 220 215 207 333 1 0 10 16 264 246 261 288 280 240 230 236 235 231 234 237 242 240 242 249 254 269 250 216 220 231 228 219 211 207
177 186 193 196 195 192 201 206 207 214 214 212 212 211 213 215 221 222 223 225 228 239 245 248 248 244 245 247 249 242 238 235 224 221 227 224 226 226 231 239 228 217 227 230 231 234 236 236 237 241 230 216 212 195 247 356 358 2 8 277 226 228 249 251 244 237 240 241 239 241 242 245 243 240 249 249 256 255 229 223 228 240 240 223 213
172 180 184 188 194 195 202 207 209 218 217 212 208 206 207 209 216 219 221 225 230 242 250 255 261 270 271 263 256 251 255 248 224 224 228 223 228 233 238 242 225 212 222 232 231 228 229 228 224 225 220 213 207 197 235 307 332 340 270 224 207 207 222 226 228 227 230 232 236 244 246 250 251 243 247 248 247 249 237 228 224 234 248 248 225
178 182 187 191 200 201 204 209 212 216 215 210 204 199 196 195 205 216 226 237 246 257 262 265 270 282 285 283 272 255 259 256 232 229 230 230 235 240 240 230 224 227 228 232 233 228 224 220 212 211 213 207 206 217 248 264 246 233 222 214 196 193 203 207 220 225 225 224 229 240 245 252 258 254 250 250 249 252 251 239 226 231 244 253 252
194 187 192 198 202 204 205 212 213 212 210 205 199 191 185 187 199 207 223 242 262 278 282 281 282 284 287 302 306 288 289 290 262 244 235 244 252 253 240 221 222 233 234 234 237 237 222 213 211 203 201 201 198 204 213 212 201 190 178 169 160 170 189 196 205 220 224 224 228 236 242 248 254 257 256 253 250 249 253 252 240 233 238 247 258
204 191 196 202 202 203 205 211 212 208 205 201 194 184 180 185 192 193 200 215 239 258 282 296 300 319 319 319 322 311 305 300 280 260 243 248 254 255 244 229 228 235 241 240 237 241 223 213 219 198 187 194 190 181 175 178 181 178 166 153 144 146 168 184 196 214 223 226 231 237 242 245 247 252 254 255 254 251 251 255 255 247 243 244 247
203 196 200 202 201 202 203 208 208 203 201 200 190 181 182 183 180 175 176 179 182 173 138 81 64 60 62 50 7 308 284 280 275 257 240 245 248 250 241 230 232 237 244 238 223 236 227 213 223 201 187 190 182 171 160 158 170 176 171 164 161 155 157 161 160 175 199 217 229 237 242 243 244 247 249 250 252 254 254 253 255 257 259 259 253
202 202 202 197 197 199 198 203 206 202 200 198 189 182 180 176 169 164 162 155 146 140 122 107 99 96 99 95 90 100 120 217 247 176 159 226 228 232 226 222 232 238 244 238 221 238 243 219 223 224 215 198 169 163 164 158 168 179 182 184 181 179 180 175 163 154 161 179 201 222 235 240 245 248 248 250 253 255 257 256 256 258 262 267 266
200 205 204 196 195 195 194 199 203 201 201 199 190 184 177 170 163 156 151 141 136 136 130 122 115 109 104 99 97 94 93 97 98 97 100 116 145 161 187 210 226 239 246 236 199 210 253 225 214 219 225 210 176 173 178 167 167 175 178 189 197 202 203 204 206 199 187 182 185 194 201 217 244 258 253 252 257 257 258 259 260 261 263 267 270
192 200 204 199 195 195 196 198 198 197 202 202 191 183 177 171 163 154 153 147 142 146 143 133 121 110 103 100 97 93 91 94 99 100 101 103 112 131 166 201 218 247 257 240 182 166 207 209 199 206 221 217 195 189 186 174 174 174 167 170 197 223 220 218 221 222 220 219 220 218 213 217 254 309 289 254 254 260 258 256 261 266 266 266 270
187 193 200 198 196 196 197 197 195 194 201 202 191 181 174 173 167 158 160 157 150 153 154 148 134 118 107 98 92 93 90 91 104 108 105 99 96 105 123 164 195 225 235 234 185 162 201 207 203 219 228 223 200 185 190 194 183 164 140 131 163 223 244 241 224 219 221 226 231 228 227 230 236 268 299 297 256 268 262 248 259 274 271 266 267
187 188 193 196 198 199 198 197 196 196 199 197 189 180 174 174 170 162 166 164 158 162 161 154 151 147 138 116 93 88 88 94 106 114 116 109 100 100 104 146 182 190 177 171 156 158 191 214 234 247 234 227 212 189 191 199 191 173 140 93 90 116 234 270 248 213 216 225 231 231 232 230 223 244 278 288 262 269 283 271 281 291 288 283 281
193 192 194 197 199 199 199 199 197 195 195 192 186 180 175 171 165 161 165 162 157 160 155 145 148 151 144 128 111 103 109 111 109 120 129 125 127 129 127 184 176 164 151 138 136 155 182 214 244 254 242 240 233 211 201 199 198 191 173 145 107 115 216 231 57 185 209 220 226 232 237 234 231 254 266 269 264 264 281 282 280 284 294 305 299
196 198 199 197 196 197 197 196 194 191 190 189 186 182 179 175 171 169 167 161 157 159 155 144 141 134 121 112 108 107 110 113 114 131 133 134 153 151 156 190 168 153 143 136 142 168 198 213 218 217 228 246 234 227 223 216 213 197 178 161 148 165 162 163 161 159 173 166 173 213 228 217 224 261 261 259 271 266 257 261 264 267 278 289 291
193 194 194 192 192 193 191 189 187 186 186 186 185 184 180 178 181 181 178 173 167 167 168 160 147 135 122 112 106 104 104 100 104 115 122 131 136 136 143 147 141 136 122 108 105 110 143 186 191 190 197 218 210 206 222 227 229 210 184 153 134 139 129 133 147 129 124 83 65 64 62 62 69 273 262 246 255 265 266 266 263 268 283 289 287
189 190 190 189 188 185 182 182 182 183 184 185 187 187 182 178 181 184 182 180 177 174 175 171 158 149 137 123 112 105 102 96 92 96 119 132 123 116 136 138 129 123 112 103 96 92 93 117 160 171 176 181 186 204 216 218 213 206 202 181 132 117 104 93 83 84 131 96 61 61 63 63 62 50 3 246 240 246 286 315 282 283 305 308 303
191 190 185 175 170 174 175 178 182 185 187 187 188 188 184 181 184 184 178 173 175 174 172 170 165 163 153 134 123 111 106 99 90 99 129 133 117 108 125 134 129 125 120 108 95 92 90 97 122 142 157 157 151 168 182 174 166 175 209 196 128 93 78 68 66 70 82 92 93 67 59 65 63 59 61 69 73 148 220 32 37 339 337 353 355
192 181 161 137 150 182 187 186 189 190 189 190 190 187 184 185 187 188 182 173 172 173 171 172 170 172 164 143 129 117 112 106 103 121 134 133 121 111 123 134 135 136 132 116 98 92 89 94 104 108 115 118 117 123 122 126 122 92 117 157 121 100 81 65 57 67 79 84 97 94 47 59 63 61 65 70 72 74 81 91 97 74 53 49 32
183 170 167 172 187 201 202 196 194 192 189 190 191 187 184 191 195 195 193 185 183 184 182 180 178 177 166 147 133 122 116 112 119 130 134 131 125 122 138 138 134 135 132 119 102 95 98 104 102 99 99 96 91 90 90 96 101 90 89 101 108 107 99 86 68 69 84 91 99 82 66 73 77 72 69 69 71 73 74 75 77 79 77 74 70